Home > Time Zones > World Clock > Weather > Ghana > Accra > Past weeks

Flag for Ghana Weather past 2 weeks in Accra, Ghana

Now
75 °F

Mostly cloudy.


Feels Like: 75 °F
Forecast: 76 / 80 °F
Wind: 9 mph from West

Location: Accra Airport

Current Time: Aug 29, 2014 at 6:22:11 AM

Latest Report: Aug 29, 2014 at 5:00 AM


Visibility: N/A

Pressure: 29.89 "Hg

Humidity: 89%

Dew point: 72 °F

Location of AccraLocation

Historic Weather in Accra — Graph

°F

Accra temperature yesterday

Maximum temperature yesterday: 82 °F (at 10:52 AM)
Minimum temperature yesterday: 73 °F (at 2:00 AM)
Average temperature yesterday: 76 °F

Past Weeks' High & Low Weather Summary

 TemperatureHumidityPressure
High84 °F (Aug 24, 12:00 PM)100% (Aug 21, 5:54 AM)30.04 "Hg (Aug 21, 5:54 AM)
Low70 °F (Aug 26, 12:00 PM)66% (Aug 14, 2:00 PM)29.86 "Hg (Aug 18, 3:53 PM)
Average76 °F87%29.94 "Hg
* Reported Aug 14 6:00 AM — Aug 29 5:00 AM, Accra, Weather by CustomWeather, © 2014

Note: Actual official high and low records may vary slightly from our data, if they occured in-between our weather recording intervals... More about our weather records

Advertising

Accra weather history for previous 24 hours

 ConditionsComfort  
Time TempWeatherWind HumidityBarometerVisibility
5:00 AM
Aug 29
75 °FMostly cloudy.9 mph89%29.89 "HgN/A
4:00 AM75 °FMostly cloudy.10 mph89%29.89 "HgN/A
2:55 AM75 °FMostly cloudy.10 mph94%29.89 "HgN/A
1:58 AM75 °FOvercast.10 mph94%29.92 "HgN/A
12:52 AM75 °FMostly cloudy.7 mph94%29.92 "HgN/A
12:00 AM75 °FOvercast.9 mph89%29.92 "HgN/A
11:00 PM
Aug 28
75 °FPartly cloudy.9 mph89%29.92 "HgN/A
10:00 PM75 °FPassing clouds.10 mph89%29.92 "HgN/A
9:00 PM75 °FPassing clouds.8 mph89%29.89 "HgN/A
8:00 PM75 °FPartly cloudy.9 mph89%29.89 "HgN/A
7:00 PM75 °FClear.10 mph89%29.86 "Hg10 mi
5:51 PM77 °FSunny.10 mph83%29.86 "Hg10 mi
4:51 PM77 °FSunny.12 mph79%29.86 "Hg10 mi
3:52 PM79 °FSunny.12 mph79%29.86 "Hg10 mi
2:54 PM79 °FScattered clouds.10 mph79%29.86 "HgN/A
1:51 PM79 °FScattered clouds.12 mph79%29.89 "HgN/A
12:51 PM79 °FOvercast.12 mph79%29.92 "HgN/A
11:53 AM82 °FPartly sunny.7 mph70%29.92 "HgN/A
10:52 AM82 °FPartly sunny.7 mph74%29.95 "HgN/A
9:50 AM79 °FOvercast.7 mph79%29.98 "HgN/A
8:51 AM77 °FPartly sunny.10 mph83%29.98 "HgN/A
7:51 AM75 °FPartly sunny.12 mph89%29.98 "HgN/A
6:55 AM73 °FScattered clouds.7 mph94%29.95 "HgN/A
6:00 AM73 °FFog.7 mph94%29.95 "Hg3 mi
Weather by CustomWeather, © 2014

See weather overviewHow to use our weather pages